Tracking 18032 objects as of 27-March-2017
HD Live streaming from Space Station
objects crossing your sky now

COSMOS 2251 DEB

Track COSMOS 2251 DEB now!
10-day predictions


NORAD ID: 37120
Int'l Code: 1993-036BGS
Perigee: 734.4 km
Apogee: 811.3 km
Inclination: 74.0 °
Period: 100.2 minutes
Semi major axis: 7143 km
RCS: 0.0125 m2 (small)
Launch date: June 16, 1993
Source: Commonwealth of Independent States (former USSR) (CIS)
Launch site: PLESETSK MISSILE AND SPACE COMPLEX (PKMTR)

Note: This is SATELLITE DEBRIS
Your satellite tracking list
Your tracking list is empty





NASA's NSSDC Master Catalog

Two Line Element Set (TLE):
1 37120U 93036BGS 17084.54813676 +.00001445 +00000-0 +47987-3 0  9996
2 37120 074.0181 037.2747 0053847 142.9621 217.5270 14.37826648200700
Source of the keplerian elements: AFSPC